Location: Chèvreville
(49.1099°N, 2.8495°E)
Time: 14:10:49
(UTC+00:00)

Lacrosse 5 - Pass Details

Date: 28 January 2023
Orbit: 714 x 724 km, 57.0° (Epoch: 09 March)

Event Time Altitude Azimuth Distance (km) Brightness Sun altitude
Rises 18:37:24 0° 186° (S) 3,121 5.3 -19.4°
Reaches altitude 10° 18:40:20 10° 169° (S) 2,207 4.3 -19.9°
Enters shadow 18:42:20 17° 148° (SSE) 1,778 3.6 -20.2°
